Lubbock, TX

12:49 PM CST on November 12, 2019 (GMT -0600)
Lubbock International

Weather History for KLBB - August, 2019

Change the Weather History Date:

Saturday, August 10, 2019

  Actual Average Record
Temperature  
Mean Temperature 87 °F 80 °F  
Max Temperature 99 °F 92 °F 104 °F (2011)
Min Temperature 75 °F 68 °F 55 °F (1915)
Degree Days  
Heating Degree Days 0 0  
Month to date heating degree days 0 0  
Since 1 June heating degree days 0 2  
Since 1 July heating degree days 0 0  
Cooling Degree Days 22 15  
Month to date cooling degree days 213 150  
Year to date cooling degree days 1320 1243  
Since 1 June cooling degree days 1110 997  
Growing Degree Days 37 (Base 50)    
Moisture  
Dew Point 59 °F    
Average Humidity 39    
Maximum Humidity 54    
Minimum Humidity 24    
Precipitation  
Precipitation 0.00 in 0.06 in 1.57 in (1931)
Month to date precipitation 0.13 0.62  
Year to date precipitation 13.58 11.78  
Snow  
Snow 0.00 in 0.00 in 0.00 in (2002)
Month to date snowfall 0.0 0.0  
Since 1 June snowfall 0.0 0.0  
Since 1 July snowfall 0.0 0.0  
Snow Depth 0.00 in    
Sea Level Pressure  
Sea Level Pressure 29.81 in    
Wind  
Wind Speed 9 mph (South)    
Max Wind Speed 18 mph    
Max Gust Speed 27 mph    
Visibility 10 miles    
Events      
T = Trace of Precipitation, MM = Missing Value Source: NWS Daily Summary

Daily Weather History Graph

Daily Weather History Graph

Search for Another Location

Airport or City:

Astronomy

Aug. 10, 2019 Rise Set
Actual Time 7:05 AM CDT 8:39 PM CDT
Civil Twilight 6:39 AM CDT 9:05 PM CDT
Nautical Twilight 6:07 AM CDT 9:37 PM CDT
Astronomical Twilight 5:33 AM CDT 10:11 PM CDT
Moon 5:17 PM CDT (8/10) 2:48 AM CDT (8/10)
Length of Visible Light 14h 26m
Length of Day
13h 33m
Waxing Gibbous, 79% of the Moon is Illuminated
Aug 10
Waxing Gibbous
Aug 15
Full
Aug 23
Last Quarter
Aug 30
New
Sep 5
First Quarter

Hourly Weather History & Observations

Time (CDT) Temp. Heat Index Dew Point Humidity Pressure Visibility Wind Dir Wind Speed Gust Speed Precip Events Conditions
12:53 AM 82.9 °F 82.8 °F 59.0 °F 44% 29.77 in 10.0 mi SSE 11.5 mph - N/A   Mostly Cloudy
1:53 AM 82.9 °F 82.8 °F 59.0 °F 44% 29.78 in 10.0 mi SSE 10.4 mph - N/A   Scattered Clouds
2:53 AM 79.0 °F - 60.1 °F 52% 29.79 in 10.0 mi SSE 8.1 mph - N/A   Partly Cloudy
3:53 AM 80.1 °F 80.7 °F 59.0 °F 48% 29.80 in 10.0 mi South 9.2 mph - N/A   Scattered Clouds
4:53 AM 79.0 °F - 57.9 °F 48% 29.81 in 10.0 mi South 8.1 mph - N/A   Scattered Clouds
5:53 AM 77.0 °F - 57.9 °F 52% 29.83 in 10.0 mi West 6.9 mph - N/A   Overcast
6:53 AM 75.9 °F - 57.9 °F 54% 29.84 in 10.0 mi Calm Calm - N/A   Mostly Cloudy
7:53 AM 78.1 °F - 59.0 °F 52% 29.86 in 10.0 mi WSW 4.6 mph - N/A   Mostly Cloudy
8:53 AM 81.0 °F 81.6 °F 60.1 °F 49% 29.86 in 10.0 mi SSW 11.5 mph - N/A   Scattered Clouds
9:53 AM 84.0 °F 84.0 °F 60.1 °F 44% 29.87 in 10.0 mi SSW 11.5 mph - N/A   Partly Cloudy
10:53 AM 87.1 °F 86.7 °F 60.1 °F 40% 29.87 in 10.0 mi South 8.1 mph - N/A   Partly Cloudy
11:53 AM 90.0 °F 90.0 °F 61.0 °F 38% 29.86 in 10.0 mi South 9.2 mph - N/A   Partly Cloudy
12:53 PM 91.9 °F 91.8 °F 61.0 °F 35% 29.84 in 10.0 mi SSW 9.2 mph - N/A   Partly Cloudy
1:53 PM 95.0 °F 94.4 °F 59.0 °F 30% 29.82 in 10.0 mi SSE 13.8 mph 21.9 mph N/A   Partly Cloudy
2:53 PM 96.1 °F 95.6 °F 59.0 °F 29% 29.80 in 10.0 mi SSE 12.7 mph 23.0 mph N/A   Partly Cloudy
3:53 PM 96.1 °F 96.0 °F 60.1 °F 30% 29.78 in 10.0 mi South 10.4 mph 23.0 mph N/A   Partly Cloudy
4:53 PM 98.1 °F 98.1 °F 60.1 °F 28% 29.77 in 10.0 mi SE 10.4 mph 20.7 mph N/A   Partly Cloudy
5:53 PM 98.1 °F 96.8 °F 57.0 °F 25% 29.76 in 10.0 mi SE 6.9 mph - N/A   Partly Cloudy
6:53 PM 98.1 °F 96.4 °F 55.9 °F 24% 29.75 in 10.0 mi South 11.5 mph - N/A   Partly Cloudy
7:53 PM 96.1 °F 95.2 °F 57.9 °F 28% 29.74 in 10.0 mi SSE 11.5 mph - N/A   Scattered Clouds
8:53 PM 91.0 °F 90.5 °F 60.1 °F 35% 29.77 in 10.0 mi SSE 5.8 mph - N/A   Scattered Clouds
9:53 PM 89.1 °F 88.8 °F 60.1 °F 38% 29.79 in 10.0 mi SE 8.1 mph - N/A   Scattered Clouds
10:53 PM 87.1 °F 86.7 °F 60.1 °F 40% 29.81 in 10.0 mi SE 10.4 mph - N/A   Partly Cloudy
11:53 PM 86.0 °F 85.7 °F 60.1 °F 41% 29.82 in 10.0 mi SE 12.7 mph - N/A   Scattered Clouds